Location: Arcusa
(42.3167°N, 0.0833°W)
Time: 16:31:40
(UTC+00:00)

STARLINK-1054 - Pass Details

Date: 25 January 2020
Orbit: 548 x 551 km, 53.0° (Epoch: 19 February)

Event Time Altitude Azimuth Distance (km) Brightness Sun altitude
Rises 06:22:46 0° 226° (SW) 2,705 6.9 -10.9°
Reaches altitude 10° 06:25:00 10° 224° (SW) 1,815 6.0 -10.5°
Maximum altitude 06:29:06 73° 141° (SE) 578 3.9 -9.8°
Drops below altitude 10° 06:33:15 10° 56° (ENE) 1,828 6.9 -9.0°
Sets 06:35:29 0° 55° (NE) 2,725 7.7 -8.6°
